Time,TemperatureF,DewpointF,PressureIn,WindDirection,WindDirectionDegrees,WindSpeedMPH,WindSpeedGustMPH,Humidity,HourlyPrecipIn,Conditions,Clouds,dailyrainin,SolarRadiationWatts/m^2,SoftwareType,DateUTC
2013-03-14 00:33:00,14.0,11.0,-100.00,NNE,26,15.0,32.0,88,0.00,,,0.00,0.000000,,2013-03-14 04:33:00,
2013-03-14 00:42:00,14.0,11.0,-100.00,NNE,26,15.0,32.0,88,0.00,,,0.00,0.000000,,2013-03-14 04:42:00,
2013-03-14 00:53:00,14.0,11.0,-100.00,NNE,26,15.0,32.0,88,0.00,,,0.00,0.000000,,2013-03-14 04:53:00,
2013-03-14 01:02:00,14.0,11.0,-100.00,NNE,26,15.0,32.0,88,0.00,,,0.00,0.000000,,2013-03-14 05:02:00,
2013-03-14 01:33:00,13.0,10.0,-100.00,NNE,30,15.0,27.0,89,0.00,,,0.00,0.000000,,2013-03-14 05:33:00,
2013-03-14 01:42:00,13.0,10.0,-100.00,NNE,30,15.0,27.0,89,0.00,,,0.00,0.000000,,2013-03-14 05:42:00,
2013-03-14 01:53:00,13.0,10.0,-100.00,NNE,30,15.0,27.0,89,0.00,,,0.00,0.000000,,2013-03-14 05:53:00,
2013-03-14 02:02:00,13.0,10.0,-100.00,NNE,30,15.0,27.0,89,0.00,,,0.00,0.000000,,2013-03-14 06:02:00,
2013-03-14 02:33:00,12.0,9.0,-100.00,NNE,21,14.0,29.0,89,0.00,,,0.00,0.000000,,2013-03-14 06:33:00,
2013-03-14 02:42:00,12.0,9.0,-100.00,NNE,21,14.0,29.0,89,0.00,,,0.00,0.000000,,2013-03-14 06:42:00,
2013-03-14 02:52:00,12.0,9.0,-100.00,NNE,21,14.0,29.0,89,0.00,,,0.00,0.000000,,2013-03-14 06:52:00,
2013-03-14 03:02:00,12.0,9.0,-100.00,NNE,21,14.0,29.0,89,0.00,,,0.00,0.000000,,2013-03-14 07:02:00,
2013-03-14 03:22:00,11.0,8.0,-100.00,NE,35,17.0,34.0,88,0.00,,,0.00,0.000000,,2013-03-14 07:22:00,
2013-03-14 03:32:00,11.0,8.0,-100.00,NE,35,17.0,34.0,88,0.00,,,0.00,0.000000,,2013-03-14 07:32:00,
2013-03-14 03:43:00,11.0,8.0,-100.00,NE,35,17.0,34.0,88,0.00,,,0.00,0.000000,,2013-03-14 07:43:00,
2013-03-14 03:52:00,11.0,8.0,-100.00,NE,35,17.0,34.0,88,0.00,,,0.00,0.000000,,2013-03-14 07:52:00,
2013-03-14 04:02:00,11.0,8.0,-100.00,NE,35,17.0,34.0,88,0.00,,,0.00,0.000000,,2013-03-14 08:02:00,
2013-03-14 04:32:00,11.0,8.0,-100.00,NNE,30,17.0,30.0,88,0.00,,,0.00,0.000000,,2013-03-14 08:32:00,
2013-03-14 04:42:00,11.0,8.0,-100.00,NNE,30,17.0,30.0,88,0.00,,,0.00,0.000000,,2013-03-14 08:42:00,
2013-03-14 04:52:00,11.0,8.0,-100.00,NNE,30,17.0,30.0,88,0.00,,,0.00,0.000000,,2013-03-14 08:52:00,
2013-03-14 05:02:00,11.0,8.0,-100.00,NNE,30,17.0,30.0,88,0.00,,,0.00,0.000000,,2013-03-14 09:02:00,
2013-03-14 05:32:00,11.0,8.0,-100.00,NNE,33,14.0,30.0,87,0.00,,,0.00,0.000000,,2013-03-14 09:32:00,
2013-03-14 05:42:00,11.0,8.0,-100.00,NNE,33,14.0,30.0,87,0.00,,,0.00,0.000000,,2013-03-14 09:42:00,
2013-03-14 05:52:00,11.0,8.0,-100.00,NNE,33,14.0,30.0,87,0.00,,,0.00,0.000000,,2013-03-14 09:52:00,
2013-03-14 06:02:00,11.0,8.0,-100.00,NNE,33,14.0,30.0,87,0.00,,,0.00,0.000000,,2013-03-14 10:02:00,
2013-03-14 06:32:00,10.0,7.0,-100.00,NE,40,18.0,26.0,87,0.00,,,0.00,0.000000,,2013-03-14 10:32:00,
2013-03-14 06:42:00,10.0,7.0,-100.00,NE,40,18.0,26.0,87,0.00,,,0.00,0.000000,,2013-03-14 10:42:00,
2013-03-14 06:52:00,10.0,7.0,-100.00,NE,40,18.0,26.0,87,0.00,,,0.00,0.000000,,2013-03-14 10:52:00,
2013-03-14 07:02:00,10.0,7.0,-100.00,NE,40,18.0,26.0,87,0.00,,,0.00,0.000000,,2013-03-14 11:02:00,
2013-03-14 07:22:00,9.0,6.0,-100.00,NE,39,18.0,29.0,86,0.00,,,0.00,0.000000,,2013-03-14 11:22:00,
2013-03-14 07:33:00,9.0,6.0,-100.00,NE,39,18.0,29.0,86,0.00,,,0.00,0.000000,,2013-03-14 11:33:00,
2013-03-14 07:42:00,9.0,6.0,-100.00,NE,39,18.0,29.0,86,0.00,,,0.00,0.000000,,2013-03-14 11:42:00,
2013-03-14 07:53:00,9.0,6.0,-100.00,NE,39,18.0,29.0,86,0.00,,,0.00,0.000000,,2013-03-14 11:53:00,
2013-03-14 08:02:00,9.0,6.0,-100.00,NE,39,18.0,29.0,86,0.00,,,0.00,0.000000,,2013-03-14 12:02:00,
2013-03-14 08:33:00,9.0,6.0,-100.00,NE,51,13.0,26.0,86,0.00,,,0.00,6.000000,,2013-03-14 12:33:00,
2013-03-14 08:43:00,9.0,6.0,-100.00,NE,51,13.0,26.0,86,0.00,,,0.00,6.000000,,2013-03-14 12:43:00,
2013-03-14 08:52:00,9.0,6.0,-100.00,NE,51,13.0,26.0,86,0.00,,,0.00,6.000000,,2013-03-14 12:52:00,
2013-03-14 09:02:00,9.0,6.0,-100.00,NE,51,13.0,26.0,86,0.00,,,0.00,6.000000,,2013-03-14 13:02:00,
2013-03-14 09:32:00,11.0,7.0,-100.00,ENE,62,9.0,20.0,83,0.00,,,0.00,121.000000,,2013-03-14 13:32:00,
2013-03-14 09:43:00,11.0,7.0,-100.00,ENE,62,9.0,20.0,83,0.00,,,0.00,121.000000,,2013-03-14 13:43:00,
2013-03-14 09:52:00,11.0,7.0,-100.00,ENE,62,9.0,20.0,83,0.00,,,0.00,121.000000,,2013-03-14 13:52:00,
2013-03-14 10:02:00,11.0,7.0,-100.00,ENE,62,9.0,20.0,83,0.00,,,0.00,121.000000,,2013-03-14 14:02:00,
2013-03-14 10:22:00,12.0,8.0,-100.00,East,79,12.0,17.0,82,0.00,,,0.00,328.000000,,2013-03-14 14:22:00,
2013-03-14 10:32:00,12.0,8.0,-100.00,East,79,12.0,17.0,82,0.00,,,0.00,328.000000,,2013-03-14 14:32:00,
2013-03-14 10:42:00,12.0,8.0,-100.00,East,79,12.0,17.0,82,0.00,,,0.00,328.000000,,2013-03-14 14:42:00,
2013-03-14 10:53:00,12.0,8.0,-100.00,East,79,12.0,17.0,82,0.00,,,0.00,328.000000,,2013-03-14 14:53:00,
2013-03-14 11:02:00,12.0,8.0,-100.00,East,79,12.0,17.0,82,0.00,,,0.00,328.000000,,2013-03-14 15:02:00,
2013-03-14 11:03:00,17.0,10.0,-100.00,ENE,57,8.0,23.0,75,0.00,,,0.00,533.000000,,2013-03-14 15:03:00,
2013-03-14 11:22:00,17.0,10.0,-100.00,ENE,57,8.0,23.0,75,0.00,,,0.00,533.000000,,2013-03-14 15:22:00,
2013-03-14 11:33:00,17.0,10.0,-100.00,ENE,57,8.0,23.0,75,0.00,,,0.00,533.000000,,2013-03-14 15:33:00,
2013-03-14 11:43:00,17.0,10.0,-100.00,ENE,57,8.0,23.0,75,0.00,,,0.00,533.000000,,2013-03-14 15:43:00,
2013-03-14 11:52:00,17.0,10.0,-100.00,ENE,57,8.0,23.0,75,0.00,,,0.00,533.000000,,2013-03-14 15:52:00,
2013-03-14 12:23:00,23.0,13.0,-100.00,NNE,33,5.0,15.0,64,0.00,,,0.00,719.000000,,2013-03-14 16:23:00,
2013-03-14 12:33:00,23.0,13.0,-100.00,NNE,33,5.0,15.0,64,0.00,,,0.00,719.000000,,2013-03-14 16:33:00,
2013-03-14 12:42:00,23.0,13.0,-100.00,NNE,33,5.0,15.0,64,0.00,,,0.00,719.000000,,2013-03-14 16:42:00,
2013-03-14 12:52:00,23.0,13.0,-100.00,NNE,33,5.0,15.0,64,0.00,,,0.00,719.000000,,2013-03-14 16:52:00,
2013-03-14 13:02:00,23.0,13.0,-100.00,NNE,33,5.0,15.0,64,0.00,,,0.00,719.000000,,2013-03-14 17:02:00,
2013-03-14 13:03:00,28.0,10.0,-100.00,NE,36,8.0,14.0,47,0.00,,,0.00,834.000000,,2013-03-14 17:03:00,
2013-03-14 13:33:00,28.0,10.0,-100.00,NE,36,8.0,14.0,47,0.00,,,0.00,834.000000,,2013-03-14 17:33:00,
2013-03-14 13:42:00,28.0,10.0,-100.00,NE,36,8.0,14.0,47,0.00,,,0.00,834.000000,,2013-03-14 17:42:00,
2013-03-14 13:53:00,28.0,10.0,-100.00,NE,36,8.0,14.0,47,0.00,,,0.00,834.000000,,2013-03-14 17:53:00,
2013-03-14 14:03:00,33.0,10.0,-100.00,NNE,29,6.0,15.0,37,0.00,,,0.00,884.000000,,2013-03-14 18:03:00,
2013-03-14 14:23:00,33.0,10.0,-100.00,NNE,29,6.0,15.0,37,0.00,,,0.00,884.000000,,2013-03-14 18:23:00,
2013-03-14 14:33:00,33.0,10.0,-100.00,NNE,29,6.0,15.0,37,0.00,,,0.00,884.000000,,2013-03-14 18:33:00,
2013-03-14 14:43:00,33.0,10.0,-100.00,NNE,29,6.0,15.0,37,0.00,,,0.00,884.000000,,2013-03-14 18:43:00,
2013-03-14 14:53:00,33.0,10.0,-100.00,NNE,29,6.0,15.0,37,0.00,,,0.00,884.000000,,2013-03-14 18:53:00,
2013-03-14 15:23:00,38.0,9.0,-100.00,NNE,17,6.0,14.0,29,0.00,,,0.00,849.000000,,2013-03-14 19:23:00,
2013-03-14 15:32:00,38.0,9.0,-100.00,NNE,17,6.0,14.0,29,0.00,,,0.00,849.000000,,2013-03-14 19:32:00,
2013-03-14 15:43:00,38.0,9.0,-100.00,NNE,17,6.0,14.0,29,0.00,,,0.00,849.000000,,2013-03-14 19:43:00,
2013-03-14 15:52:00,38.0,9.0,-100.00,NNE,17,6.0,14.0,29,0.00,,,0.00,849.000000,,2013-03-14 19:52:00,
2013-03-14 16:02:00,38.0,9.0,-100.00,NNE,17,6.0,14.0,29,0.00,,,0.00,849.000000,,2013-03-14 20:02:00,
2013-03-14 16:03:00,34.0,6.0,-100.00,NNE,27,9.0,20.0,30,0.00,,,0.00,617.000000,,2013-03-14 20:03:00,
2013-03-14 16:32:00,34.0,6.0,-100.00,NNE,27,9.0,20.0,30,0.00,,,0.00,617.000000,,2013-03-14 20:32:00,
2013-03-14 16:42:00,34.0,6.0,-100.00,NNE,27,9.0,20.0,30,0.00,,,0.00,617.000000,,2013-03-14 20:42:00,
2013-03-14 16:52:00,34.0,6.0,-100.00,NNE,27,9.0,20.0,30,0.00,,,0.00,617.000000,,2013-03-14 20:52:00,
2013-03-14 17:03:00,33.0,5.0,-100.00,NNE,18,8.0,16.0,30,0.00,,,0.00,382.000000,,2013-03-14 21:03:00,
2013-03-14 17:33:00,33.0,5.0,-100.00,NNE,18,8.0,16.0,30,0.00,,,0.00,382.000000,,2013-03-14 21:33:00,
2013-03-14 17:43:00,33.0,5.0,-100.00,NNE,18,8.0,16.0,30,0.00,,,0.00,382.000000,,2013-03-14 21:43:00,
2013-03-14 17:53:00,33.0,5.0,-100.00,NNE,18,8.0,16.0,30,0.00,,,0.00,382.000000,,2013-03-14 21:53:00,
2013-03-14 18:03:00,31.0,3.0,-100.00,NNW,341,5.0,14.0,30,0.00,,,0.00,248.000000,,2013-03-14 22:03:00,
2013-03-14 18:23:00,31.0,3.0,-100.00,NNW,341,5.0,14.0,30,0.00,,,0.00,248.000000,,2013-03-14 22:23:00,
2013-03-14 18:33:00,31.0,3.0,-100.00,NNW,341,5.0,14.0,30,0.00,,,0.00,248.000000,,2013-03-14 22:33:00,
2013-03-14 18:42:00,31.0,3.0,-100.00,NNW,341,5.0,14.0,30,0.00,,,0.00,248.000000,,2013-03-14 22:42:00,
2013-03-14 18:53:00,31.0,3.0,-100.00,NNW,341,5.0,14.0,30,0.00,,,0.00,248.000000,,2013-03-14 22:53:00,
2013-03-14 19:33:00,28.0,2.0,-100.00,North,356,5.0,16.0,32,0.00,,,0.00,103.000000,,2013-03-14 23:33:00,
2013-03-14 19:43:00,28.0,2.0,-100.00,North,356,5.0,16.0,32,0.00,,,0.00,103.000000,,2013-03-14 23:43:00,
2013-03-14 19:54:00,28.0,2.0,-100.00,North,356,5.0,16.0,32,0.00,,,0.00,103.000000,,2013-03-14 23:54:00,
2013-03-14 20:02:00,28.0,2.0,-100.00,North,356,5.0,16.0,32,0.00,,,0.00,103.000000,,2013-03-15 00:02:00,
2013-03-14 20:33:00,24.0,5.0,-100.00,NNE,18,12.0,20.0,44,0.00,,,0.00,12.000000,,2013-03-15 00:33:00,
2013-03-14 20:43:00,24.0,5.0,-100.00,NNE,18,12.0,20.0,44,0.00,,,0.00,12.000000,,2013-03-15 00:43:00,
2013-03-14 20:52:00,24.0,5.0,-100.00,NNE,18,12.0,20.0,44,0.00,,,0.00,12.000000,,2013-03-15 00:52:00,
2013-03-14 21:02:00,24.0,5.0,-100.00,NNE,18,12.0,20.0,44,0.00,,,0.00,12.000000,,2013-03-15 01:02:00,
2013-03-14 21:03:00,22.0,8.0,-100.00,NNE,19,13.0,26.0,54,0.00,,,0.00,0.000000,,2013-03-15 01:03:00,
2013-03-14 21:33:00,22.0,8.0,-100.00,NNE,19,13.0,26.0,54,0.00,,,0.00,0.000000,,2013-03-15 01:33:00,
2013-03-14 21:43:00,22.0,8.0,-100.00,NNE,19,13.0,26.0,54,0.00,,,0.00,0.000000,,2013-03-15 01:43:00,
2013-03-14 21:52:00,22.0,8.0,-100.00,NNE,19,13.0,26.0,54,0.00,,,0.00,0.000000,,2013-03-15 01:52:00,
2013-03-14 22:22:00,22.0,5.0,-100.00,North,9,12.0,30.0,48,0.00,,,0.00,0.000000,,2013-03-15 02:22:00,
2013-03-14 22:32:00,22.0,5.0,-100.00,North,9,12.0,30.0,48,0.00,,,0.00,0.000000,,2013-03-15 02:32:00,
2013-03-14 22:42:00,22.0,5.0,-100.00,North,9,12.0,30.0,48,0.00,,,0.00,0.000000,,2013-03-15 02:42:00,
2013-03-14 22:52:00,22.0,5.0,-100.00,North,9,12.0,30.0,48,0.00,,,0.00,0.000000,,2013-03-15 02:52:00,
2013-03-14 23:02:00,22.0,5.0,-100.00,North,9,12.0,30.0,48,0.00,,,0.00,0.000000,,2013-03-15 03:02:00,
2013-03-14 23:03:00,22.0,5.0,-100.00,NNE,14,12.0,27.0,48,0.00,,,0.00,0.000000,,2013-03-15 03:03:00,
2013-03-14 23:33:00,22.0,5.0,-100.00,NNE,14,12.0,27.0,48,0.00,,,0.00,0.000000,,2013-03-15 03:33:00,
2013-03-14 23:43:00,22.0,5.0,-100.00,NNE,14,12.0,27.0,48,0.00,,,0.00,0.000000,,2013-03-15 03:43:00,
2013-03-14 23:53:00,22.0,5.0,-100.00,NNE,14,12.0,27.0,48,0.00,,,0.00,0.000000,,2013-03-15 03:53:00,